GFSSGP_sfc_temp_132.txt.gz
Temp
67 69 68 69 58 51 46 54 58 63 68 71 75 75 74 73 71 64 73 78 77 76 77 78 79 79 79 79 79 78 78 78 79 79 79 79 79 79 79 79 79 80 80 80 81 80 80 80 80
65 70 68 60 51 44 50 55 59 65 71 75 76 78 75 72 75 71 73 77 78 76 78 76 79 79 79 79 78 78 78 78 78 78 79 79 79 79 79 79 79 80 80 80 81 80 80 80 80
66 68 61 54 46 45 51 58 63 68 73 73 73 79 76 71 75 75 77 78 77 75 76 77 79 79 79 79 78 78 78 78 78 78 79 79 79 78 78 79 79 80 80 80 81 80 80 80 80
64 62 57 47 44 53 59 61 62 67 71 76 74 73 75 77 75 79 79 78 75 74 75 78 78 79 79 79 78 78 78 78 78 79 79 79 78 78 78 78 79 80 80 80 80 79 79 79 79
58 52 44 38 44 54 62 66 65 66 66 69 74 72 71 75 79 78 77 78 75 74 75 77 78 78 79 79 79 78 78 78 78 78 79 78 78 78 78 78 79 79 80 80 80 79 78 78 78
53 49 39 41 44 57 60 67 65 65 67 69 73 71 69 75 75 76 77 75 77 75 75 76 78 78 78 78 78 78 78 78 78 78 78 78 77 77 77 78 78 78 79 79 79 78 78 77 77
50 44 39 38 45 52 59 66 66 66 68 69 73 68 67 71 75 76 75 76 76 76 75 75 76 77 78 78 78 77 77 77 77 77 77 77 77 77 77 77 78 78 78 78 78 77 77 77 77
54 48 38 42 45 49 60 64 68 66 68 77 77 68 66 70 74 74 74 75 76 76 75 75 74 76 75 75 77 77 77 77 77 77 77 77 77 77 77 76 77 78 77 77 77 77 77 77 76
55 42 36 43 50 53 60 59 70 74 70 72 73 70 74 73 73 71 71 72 73 74 74 74 74 74 75 75 77 77 78 77 77 77 77 76 74 75 76 76 76 77 77 77 77 77 77 76 76
51 40 44 53 57 55 61 61 64 68 68 67 71 71 73 72 71 70 69 69 70 71 72 74 74 74 74 77 75 75 76 75 74 74 74 73 73 73 75 76 77 77 77 77 77 77 77 77 73
50 48 53 56 60 62 62 61 65 63 59 67 67 68 70 71 70 70 71 72 72 72 73 74 75 75 74 75 75 75 74 74 74 73 73 72 73 73 73 72 73 73 75 74 74 73 73 73 72
45 52 57 59 62 60 60 65 63 62 65 72 71 71 70 71 69 69 69 71 71 72 73 73 74 75 75 76 75 76 75 74 74 73 72 71 71 70 71 71 71 71 72 72 71 71 71 71 71
45 50 55 62 60 59 62 62 63 60 68 73 72 71 69 70 70 68 69 68 69 69 71 72 74 73 75 74 74 75 76 75 74 73 73 72 70 70 70 70 70 70 71 71 71 70 71 71 71
52 53 56 55 56 57 59 61 61 64 69 69 70 69 69 70 70 67 68 68 68 68 70 71 72 73 74 73 75 75 76 75 74 72 73 72 71 70 69 69 70 70 71 71 71 71 71 71 72
53 46 52 52 55 56 57 55 56 67 69 68 67 67 66 70 69 70 73 71 68 68 69 71 72 71 72 72 73 73 75 74 71 72 72 73 71 70 70 69 70 71 71 71 71 71 71 70 70
48 45 43 50 55 57 58 48 58 66 65 66 68 66 65 66 70 72 72 68 68 68 67 69 72 71 71 71 71 70 71 71 72 72 72 73 72 71 70 70 71 72 72 71 71 70 70 69 70
41 36 39 46 55 57 54 47 61 65 64 64 64 64 64 63 65 68 70 69 68 67 66 68 70 70 70 69 69 69 70 70 70 71 71 72 73 73 71 71 72 71 70 70 70 69 69 70 70
36 39 43 45 51 53 48 47 60 59 62 63 62 63 62 62 65 68 68 68 68 67 67 67 69 68 68 68 67 67 67 68 68 69 70 73 73 73 71 70 71 71 70 70 70 69 67 67 67
49 45 45 48 55 52 48 49 55 57 55 58 60 61 61 61 67 68 67 67 66 67 66 66 67 67 68 67 67 66 66 66 68 69 70 71 70 70 68 68 69 70 70 71 70 68 67 66 66
47 44 43 49 55 51 49 49 54 55 57 58 60 60 61 60 62 64 64 64 65 67 66 65 66 67 68 68 65 66 65 66 66 67 68 69 69 69 68 67 67 68 68 66 65 66 66 66 67
46 44 44 47 51 50 48 45 50 56 56 58 60 61 61 62 62 62 63 64 64 63 64 66 65 65 66 64 63 63 63 63 64 64 65 67 69 69 68 68 67 67 66 66 65 63 66 64 66
40 50 51 50 45 37 47 34 44 49 53 56 59 59 58 60 62 62 63 61 62 65 64 64 63 64 64 63 63 63 62 61 62 62 65 67 68 69 70 69 68 68 67 66 65 67 66 66 64
45 54 52 52 44 38 40 38 43 47 48 54 53 53 52 53 58 61 62 67 64 63 61 62 62 62 63 63 62 62 62 62 62 62 63 63 66 67 68 68 69 67 65 67 67 68 67 66 64
56 53 52 47 40 31 38 39 40 43 44 47 52 51 52 52 53 55 58 61 60 62 62 64 64 62 62 62 62 62 62 61 61 61 62 61 63 61 63 64 64 65 66 66 66 67 66 66 66
53 47 33 29 28 28 41 39 40 44 48 49 51 49 52 54 56 55 54 57 58 59 59 61 60 58 59 58 58 58 57 57 57 58 58 57 57 57 58 60 59 60 61 62 62 62 64 64 64
47 46 30 25 25 29 42 35 40 47 49 51 52 52 54 54 54 55 57 56 55 56 57 57 57 56 57 57 56 56 56 55 55 55 55 55 56 56 58 58 58 58 58 59 58 58 59 59 59
49 43 46 36 35 33 35 39 46 49 48 51 51 52 52 53 54 54 54 53 54 54 54 55 55 55 55 56 56 56 56 56 55 55 55 55 55 58 57 56 56 56 56 56 55 54 55 56 56
53 54 41 38 28 26 33 34 37 43 46 49 49 50 52 53 53 54 53 53 53 53 53 54 54 54 54 55 55 55 55 55 55 54 53 53 53 55 55 54 54 54 54 54 53 53 55 54 55
47 47 46 43 35 28 28 33 44 45 46 48 49 50 49 49 50 50 50 51 51 52 53 53 54 54 53 53 53 53 53 53 53 52 52 52 52 52 53 53 53 53 53 52 52 52 54 53 52
48 48 41 31 32 32 31 36 48 47 47 49 49 48 48 49 49 51 52 52 51 50 51 51 52 52 52 52 52 51 51 51 50 50 51 52 51 52 52 52 52 52 52 51 51 51 51 51 51

GFSSGP_sfc_temp_138.txt.gz
Temp
81 94 97 94 80 81 79 84 90 87 88 93 94 92 91 95 89 82 94 98 99 96 92 88 80 80 80 80 80 80 79 79 79 79 79 79 79 80 79 79 80 81 81 81 81 81 81 81 80
92 91 94 91 76 74 79 89 82 91 92 94 95 94 92 88 94 91 93 95 98 95 92 92 79 80 80 80 79 79 79 79 79 79 79 79 79 79 79 79 80 81 81 81 81 81 81 81 80
89 91 88 81 77 73 79 87 87 93 92 92 92 95 92 88 91 95 97 97 98 95 95 90 80 79 79 79 79 79 79 79 79 79 79 79 79 79 79 79 80 81 81 81 81 81 81 80 80
90 89 88 75 75 82 84 88 86 88 91 93 92 89 95 93 92 95 97 98 97 98 97 83 79 79 79 79 79 79 79 79 79 79 79 79 79 79 79 79 80 81 81 81 81 80 80 80 80
90 89 76 73 77 84 87 91 90 87 88 90 91 88 91 92 93 95 96 97 97 98 98 90 79 79 79 79 79 79 79 79 79 79 79 79 79 79 79 79 80 80 81 81 80 80 80 80 80
81 84 73 71 77 84 88 89 88 87 91 91 89 90 91 94 92 95 97 97 100 98 95 91 80 79 79 79 79 78 78 78 79 79 79 78 78 78 79 79 79 80 80 80 80 79 79 79 79
77 77 73 77 79 81 82 88 85 86 88 89 94 86 92 92 93 95 97 98 99 99 96 91 91 85 79 78 78 78 78 78 78 78 78 78 78 78 78 79 79 79 79 79 79 79 79 79 79
82 79 73 77 76 76 84 84 88 87 86 97 95 86 89 91 93 95 98 98 99 98 98 95 92 93 90 88 78 78 78 78 78 78 77 77 78 78 78 77 78 79 79 79 79 79 78 78 78
84 71 70 75 74 78 85 81 88 90 88 89 94 92 92 91 91 92 94 96 97 97 98 98 97 95 94 93 86 79 78 78 78 79 78 78 90 87 84 84 78 79 79 79 79 78 78 78 77
74 70 74 83 84 80 84 83 84 83 84 86 89 93 90 90 88 84 88 91 93 95 97 99 97 95 96 96 89 90 89 90 89 89 86 91 92 91 92 86 78 78 78 79 78 78 78 78 94
74 71 80 80 82 84 82 82 86 82 81 87 86 92 90 88 87 86 88 93 94 96 96 98 94 93 95 96 93 93 93 92 91 89 87 90 92 91 92 91 89 88 80 91 85 86 90 93 94
69 77 79 82 81 79 79 84 82 82 85 89 89 92 91 88 85 86 88 91 93 94 94 95 94 91 91 96 94 94 94 93 92 91 88 89 90 89 90 93 93 90 93 91 92 94 92 90 90
71 76 76 80 80 80 82 79 80 82 86 89 89 89 90 90 90 89 88 92 92 92 93 94 93 89 89 90 93 93 93 93 93 92 89 91 90 88 91 91 93 93 94 94 93 93 91 90 90
75 73 76 77 78 79 76 77 78 81 86 85 87 87 91 91 92 92 88 88 89 91 91 93 92 89 89 88 89 90 90 93 93 92 90 87 90 88 90 90 90 91 93 94 94 92 91 90 92
73 67 72 75 76 75 78 70 73 82 84 82 84 87 89 93 95 93 91 88 89 90 89 89 89 87 86 85 87 89 91 93 91 91 88 87 87 88 87 90 90 91 91 90 89 89 88 88 91
67 68 64 73 74 76 73 66 79 83 81 80 83 86 88 91 94 95 94 91 90 90 87 87 89 88 86 86 87 89 91 91 91 91 91 88 87 87 86 89 89 91 89 88 88 88 89 89 90
64 59 61 68 74 74 71 68 80 83 82 80 83 85 87 90 92 93 94 93 91 89 88 87 87 87 86 86 88 87 85 85 88 89 90 88 88 87 85 88 87 85 83 84 87 87 86 83 83
59 59 66 64 70 73 70 71 77 81 81 80 82 85 87 89 91 92 91 93 92 88 87 88 88 86 84 83 82 88 87 86 88 90 91 87 87 86 86 88 86 85 86 87 87 83 86 84 83
68 65 62 66 73 69 70 71 77 80 80 80 82 84 84 87 93 94 91 90 89 86 85 85 85 84 85 82 83 85 85 87 88 88 87 86 87 86 85 87 84 81 80 81 81 82 81 83 86
65 63 61 67 71 70 69 69 75 79 80 81 82 84 85 87 89 89 87 87 86 85 84 84 84 83 83 85 85 87 87 89 89 89 85 86 85 84 84 83 84 84 84 82 81 80 79 81 82
60 61 61 63 66 70 69 66 69 76 80 81 84 87 87 88 89 89 86 85 86 84 83 83 84 83 83 85 83 81 82 82 82 84 85 84 83 83 81 80 80 80 80 82 80 78 76 74 78
54 66 65 63 60 56 68 57 66 73 74 77 81 84 86 87 89 91 90 87 86 86 86 84 83 82 82 81 82 80 83 83 83 85 84 85 82 82 82 79 78 76 79 77 77 77 75 74 75
58 66 64 64 61 62 61 60 68 72 70 74 79 83 86 86 88 89 89 90 89 86 84 83 82 82 81 81 82 81 79 81 82 81 78 77 77 78 79 78 76 75 75 74 72 70 71 73 74
66 62 62 64 62 49 59 60 65 67 71 75 80 80 80 82 83 84 86 85 84 85 84 82 80 79 80 81 79 79 78 79 81 79 78 77 79 78 75 76 75 74 74 74 73 73 70 66 66
59 54 46 44 47 49 64 59 67 69 72 78 75 74 74 78 82 82 82 82 80 81 81 79 75 74 78 78 78 78 76 74 73 77 77 77 77 76 71 72 71 74 72 73 73 72 72 73 72
55 57 52 41 45 52 64 54 64 68 67 70 70 66 68 75 78 75 74 73 75 77 77 77 76 76 76 75 74 75 76 77 75 73 75 74 74 72 70 70 71 70 71 70 69 75 73 71 72
55 52 68 58 60 56 57 60 63 64 57 59 60 59 57 60 65 74 76 77 77 76 75 76 75 74 74 73 73 72 73 71 70 70 71 71 71 73 69 69 68 68 67 66 65 64 66 66 69
59 66 53 59 46 45 52 55 59 60 52 54 53 54 57 60 62 64 66 68 71 72 73 74 75 74 74 74 74 73 71 71 70 70 67 67 68 69 69 69 68 68 68 67 66 69 70 66 69
57 56 59 62 59 50 46 55 69 65 56 53 53 56 61 63 64 65 68 71 74 75 75 73 74 73 73 72 71 71 71 70 70 69 69 68 68 69 69 69 69 68 68 67 66 66 68 66 66
64 58 60 52 50 58 56 50 68 64 56 53 53 57 61 63 64 66 68 69 69 71 73 72 72 72 72 71 70 70 70 69 67 67 67 68 67 69 69 68 69 68 68 67 66 66 67 66 65

GFSSGP_sfc_temp_141.txt.gz
Temp
81 93 99 97 80 83 79 86 97 93 93 100 100 97 96 99 92 79 104 104 104 99 93 88 80 80 81 81 80 80 79 79 79 79 79 79 79 80 80 80 80 81 81 81 81 81 81 81 81
96 98 97 91 77 74 81 92 93 95 99 100 99 99 97 91 100 97 99 104 104 98 92 93 79 80 81 80 80 79 79 79 79 79 79 79 79 79 80 80 80 81 81 81 81 81 81 81 81
90 98 88 83 79 74 81 94 96 98 99 97 95 100 97 92 97 100 102 104 103 98 96 90 80 80 80 80 79 79 79 79 79 79 79 79 79 79 79 80 80 81 82 82 81 81 81 81 81
93 93 90 79 77 83 86 94 97 95 99 99 97 93 98 99 98 101 102 104 101 101 99 82 79 79 80 80 79 79 79 79 79 79 79 79 79 79 79 80 80 81 81 81 81 81 81 81 80
93 91 78 76 79 87 94 96 96 92 95 96 98 93 94 98 100 102 101 103 101 102 101 90 79 79 79 80 79 79 79 79 79 79 79 79 79 79 79 80 80 81 81 81 81 81 80 80 80
84 87 75 74 80 87 93 99 97 95 96 96 93 94 95 101 101 101 103 102 104 102 97 92 80 79 79 79 79 79 78 79 79 79 79 79 79 79 79 79 80 80 81 81 80 80 80 80 80
81 80 75 79 82 86 91 99 94 92 93 94 99 90 96 99 100 102 102 103 104 102 98 92 90 84 79 78 78 78 78 78 78 78 78 78 78 79 79 79 79 80 80 80 80 80 80 79 79
85 83 77 80 79 83 95 96 95 92 91 102 102 89 92 95 100 102 104 104 104 102 100 95 92 92 90 87 78 78 78 78 78 78 78 78 78 78 79 78 79 79 79 79 80 80 80 79 79
89 75 72 78 80 84 96 89 95 97 93 97 99 98 97 97 99 100 100 101 102 102 100 99 97 95 94 93 86 79 79 78 78 79 78 78 89 86 83 83 78 79 79 79 79 79 79 79 78
80 73 76 87 89 88 92 92 91 89 89 91 93 101 97 97 97 93 94 97 99 99 100 100 98 95 96 96 89 89 89 89 88 88 85 90 92 90 92 86 79 79 79 79 79 79 79 79 91
80 73 84 86 91 92 89 90 92 88 85 91 91 95 97 95 94 95 96 98 99 100 100 101 96 94 97 97 92 93 92 92 90 89 87 89 94 92 93 92 88 86 81 88 84 84 86 90 93
75 80 82 87 91 88 86 91 88 89 89 97 97 98 98 95 93 93 95 99 99 99 99 100 98 94 94 99 94 95 95 94 92 92 88 89 92 91 92 94 93 89 93 89 92 94 91 93 94
77 80 84 86 88 88 87 84 86 88 93 96 95 95 94 95 95 94 95 97 100 98 98 99 97 93 93 94 95 96 95 95 95 93 90 92 92 91 92 93 95 95 96 96 94 94 93 93 92
82 81 82 85 84 86 82 83 85 88 93 91 91 91 93 95 96 95 93 94 95 96 96 98 96 92 93 92 93 94 94 96 96 95 94 90 92 91 92 90 92 93 95 96 96 94 93 93 93
83 76 79 80 82 81 84 76 79 88 90 87 87 90 92 94 98 96 96 92 90 92 95 94 94 92 89 90 91 93 95 96 95 96 93 91 89 89 89 90 92 93 93 92 92 91 91 90 91
74 75 68 77 79 82 81 69 82 88 86 84 86 89 90 93 97 99 99 95 87 90 90 89 95 91 88 85 87 86 91 94 95 95 93 90 87 85 87 89 91 93 92 92 91 90 88 90 90
69 63 64 71 81 79 77 72 83 90 85 83 85 88 90 92 94 97 99 97 93 94 92 91 92 91 87 84 87 85 86 89 89 91 90 89 90 90 87 90 91 89 88 88 88 88 88 86 87
61 63 69 67 78 78 75 74 82 87 86 84 85 87 89 90 93 97 97 97 94 92 90 90 90 89 88 87 87 83 83 88 90 91 91 90 88 89 87 89 89 88 88 88 82 80 84 84 85
70 68 67 73 79 73 72 75 78 84 86 85 86 86 87 89 95 97 96 96 91 89 88 88 88 86 84 84 84 82 80 81 87 89 91 86 87 87 87 88 86 85 84 83 82 82 78 78 81
66 67 68 73 79 74 72 73 79 84 83 86 86 86 88 90 93 94 94 93 92 88 87 88 88 86 86 85 86 89 86 80 81 81 86 86 88 88 84 82 83 84 79 82 80 80 79 80 79
64 63 68 68 73 76 71 69 75 82 85 86 87 89 90 89 90 92 91 90 91 87 86 84 86 85 86 85 83 86 85 81 87 84 81 83 85 84 82 81 80 81 81 83 80 80 77 74 78
59 70 71 68 66 59 72 59 70 77 78 82 84 87 89 90 92 92 90 88 88 87 84 82 81 81 83 84 84 83 84 82 83 80 80 79 81 83 83 81 81 80 79 78 77 76 75 75 75
64 72 70 69 66 63 65 62 70 76 74 77 82 86 89 91 92 92 92 90 91 86 82 80 79 79 81 85 86 84 85 83 86 86 81 79 79 80 81 80 78 77 80 77 74 75 74 72 71
71 67 68 69 66 51 64 63 66 71 74 79 82 86 88 90 92 93 94 93 91 92 88 82 78 78 80 82 83 82 81 81 84 82 81 82 83 80 77 78 77 76 75 75 76 75 75 72 74
65 59 49 48 49 52 68 61 69 78 80 81 81 85 88 90 90 90 89 88 87 86 86 84 79 76 78 77 78 78 77 79 77 79 82 81 80 78 72 74 73 75 73 74 73 72 72 74 71
59 58 50 41 46 54 67 58 64 78 81 85 86 85 84 85 89 88 88 87 87 85 84 82 80 77 77 74 73 74 79 81 80 78 79 79 78 75 73 72 72 71 71 71 70 72 72 71 70
61 53 66 59 62 59 63 63 68 73 72 73 74 75 77 83 82 81 81 83 83 82 81 80 78 76 77 77 76 76 77 75 73 73 75 75 74 76 73 72 71 72 71 70 69 73 69 70 69
62 68 54 60 47 47 58 58 61 62 65 66 65 62 68 76 79 81 82 81 81 78 75 77 78 76 77 77 76 75 74 74 73 72 70 70 71 72 72 72 72 71 71 71 69 70 71 68 69
58 55 61 62 61 52 50 58 73 66 65 57 56 59 64 67 67 71 75 77 78 79 78 76 77 76 75 75 74 73 73 73 72 72 71 71 71 71 72 72 72 72 71 70 68 68 69 69 68
65 60 62 54 52 59 59 52 75 69 63 57 57 65 70 71 74 77 77 78 77 77 77 76 75 75 75 75 74 72 72 72 70 70 70 71 70 72 72 72 71 72 72 70 69 69 69 68 67

GFSSGP_sfc_temp_147.txt.gz
Temp
68 74 73 72 58 56 54 63 74 77 80 87 90 86 81 82 74 62 82 89 84 80 79 81 80 80 80 79 79 78 78 78 78 79 78 79 79 79 79 79 80 80 81 81 81 80 80 80 80
74 80 73 67 54 47 57 71 72 80 85 88 89 88 84 80 89 85 85 86 85 80 78 79 80 80 80 79 78 78 78 78 78 78 78 79 79 79 79 79 80 80 81 81 81 80 80 80 80
74 79 62 57 52 54 58 71 78 85 89 88 85 91 87 82 91 89 89 86 83 81 78 79 80 79 79 79 78 78 78 78 78 79 79 79 79 79 79 79 80 80 81 81 81 80 80 80 79
73 67 65 53 51 61 67 73 80 83 90 92 90 81 88 94 92 90 89 87 83 81 78 79 79 79 79 79 79 78 78 78 79 79 79 79 79 79 78 79 79 80 81 81 80 80 79 79 79
69 62 51 48 53 64 72 78 81 80 84 87 88 80 81 91 95 91 89 89 85 78 78 78 79 79 79 79 79 78 78 78 78 79 79 79 78 78 78 79 79 80 80 80 80 79 79 79 79
59 61 46 51 55 68 74 80 81 81 85 89 87 80 80 92 93 91 91 89 87 78 78 79 79 79 78 79 78 78 78 78 78 78 78 78 78 78 78 78 79 79 79 79 79 79 78 78 78
57 54 49 53 58 66 72 81 80 81 81 86 94 78 81 88 92 93 92 90 82 81 77 76 79 80 80 78 78 78 78 78 78 78 78 78 78 78 78 78 78 79 78 79 79 78 78 78 78
64 59 53 60 60 62 75 78 85 82 84 94 95 80 75 87 92 93 91 83 82 79 78 75 76 80 80 77 78 78 78 78 77 77 77 77 78 78 78 77 78 78 78 78 78 78 78 77 77
70 55 54 57 62 66 78 71 83 89 85 87 89 87 89 91 92 90 85 83 81 80 78 77 76 76 77 76 78 78 78 78 77 77 77 76 74 74 76 77 78 78 78 78 78 78 77 77 77
62 55 58 65 69 69 74 74 79 80 79 79 84 90 92 91 90 84 84 81 80 78 79 79 78 77 77 81 78 75 77 75 75 74 74 72 72 72 78 78 78 78 78 78 77 77 77 77 72
59 57 66 69 73 75 75 77 81 77 71 78 80 84 88 86 84 85 85 85 81 82 82 81 80 80 80 78 75 75 75 75 74 74 73 72 75 75 76 73 76 73 77 73 75 74 73 72 72
57 66 68 71 75 75 74 80 78 75 78 86 86 85 87 83 82 82 86 86 83 83 83 83 82 81 81 77 77 76 76 75 73 74 73 71 70 74 72 74 73 72 73 71 72 72 73 72 75
61 65 70 73 74 74 76 75 75 76 83 87 89 87 84 83 82 83 83 84 87 84 84 83 83 82 79 79 79 79 77 77 76 75 75 72 72 73 74 73 74 74 74 73 72 73 74 74 75
63 67 68 72 72 74 72 73 73 78 81 83 85 80 80 82 83 83 83 82 78 84 84 82 83 81 81 80 81 81 80 80 78 78 77 75 74 74 75 75 75 74 76 76 76 76 76 75 75
64 59 67 69 72 71 74 68 71 78 78 78 80 81 82 81 82 83 84 82 81 76 75 76 75 78 81 80 80 81 81 82 81 80 78 77 76 76 78 76 76 77 77 80 78 77 76 75 76
59 59 53 66 71 74 70 61 73 77 76 74 79 80 81 78 80 80 84 82 79 74 72 75 81 78 81 81 80 79 79 84 84 82 79 78 78 78 76 76 76 77 76 76 75 74 73 72 72
53 47 52 59 71 71 69 60 71 76 75 72 73 75 78 77 77 78 81 82 77 73 73 74 76 76 79 79 77 78 80 79 79 81 81 79 80 80 76 75 75 76 75 74 73 72 71 69 71
45 49 54 56 65 70 67 65 70 74 75 72 71 73 75 76 76 80 79 80 75 73 71 72 73 72 75 77 76 76 75 75 77 79 80 78 78 79 75 74 75 73 72 71 71 71 72 71 70
54 54 54 60 68 66 65 65 68 71 71 72 69 70 72 74 77 81 81 78 75 75 72 70 71 73 75 76 73 74 74 74 73 77 79 78 79 79 75 73 72 72 71 71 72 71 70 68 70
52 51 54 62 69 66 62 63 66 71 71 73 73 71 71 72 74 81 77 77 74 72 71 68 72 74 75 76 77 74 74 73 72 74 76 77 78 75 74 72 72 72 71 71 71 69 67 67 68
51 49 53 56 65 68 63 57 64 72 74 72 77 77 72 75 72 75 76 75 75 73 72 71 72 69 73 77 74 72 71 71 71 72 72 74 76 75 74 73 71 69 70 68 68 68 67 64 65
45 58 60 60 58 50 65 47 59 67 68 71 71 75 74 73 75 74 72 70 72 73 72 70 72 72 74 73 72 71 69 69 69 71 71 71 73 74 73 71 70 68 68 66 66 68 65 64 62
46 60 58 58 55 53 58 50 58 62 62 67 70 72 75 72 74 73 72 73 74 75 71 65 67 72 73 72 72 71 69 70 71 71 68 67 68 71 72 70 68 66 65 64 63 62 63 63 61
58 54 57 56 54 43 53 51 48 59 64 68 68 72 75 73 73 73 76 77 73 74 71 71 72 71 72 71 71 71 70 70 71 69 66 67 67 67 67 67 65 63 62 61 60 60 60 59 58
54 48 39 38 40 34 53 52 50 64 70 69 69 70 72 74 73 72 72 72 70 72 72 71 69 69 70 70 71 71 69 69 69 68 68 64 63 62 62 62 61 61 61 61 60 58 58 57 56
49 48 33 29 33 39 52 47 56 67 73 73 74 72 72 72 70 73 73 71 69 70 69 69 68 68 69 67 66 67 66 64 63 65 66 64 63 61 62 61 61 61 62 60 59 57 57 58 57
44 44 48 38 45 39 45 52 63 72 69 70 71 73 68 68 69 70 69 68 67 66 66 66 67 66 65 64 64 64 63 62 61 62 64 62 61 63 61 61 61 61 61 60 58 56 56 56 56
48 57 41 40 31 33 45 48 48 57 60 68 69 63 65 66 64 65 66 65 65 66 66 66 67 65 65 64 63 63 62 62 63 63 61 60 60 61 60 60 60 60 60 59 58 56 56 56 56
43 43 48 43 40 34 36 42 57 52 62 61 62 65 64 62 63 64 65 66 67 68 68 67 69 68 67 66 65 62 62 62 62 60 59 59 59 60 60 60 60 60 59 57 55 55 56 55 54
51 48 49 38 36 46 45 38 56 58 60 61 64 63 64 65 64 64 65 65 65 66 67 66 68 67 65 63 62 60 60 59 57 57 58 59 58 59 60 61 60 57 56 54 53 53 54 53 53